Regional Weather Roundup
Issued by NWS

Home | Current Version | Previous Version | Graphics & Text | Print | Product List | Glossary On
Versions: 1 2 3 4 5 6 7 8 9 10 11 12 13 14 15 16 17 18 19 20 21 22 23 24 25 26 27 28 29 30 31 32 33 34 35 36 37 38 39 40 41 42 43 44 45 46 47 48 49 50
000
ASUS43 KDMX 031306
RWRIA

WEATHER ROUNDUP FOR IOWA
NATIONAL WEATHER SERVICE DES MOINES IA
700 AM CST SAT DEC 03 2016

NOTE: "FAIR" INDICATES FEW OR NO CLOUDS BELOW 12,000 FEET WITH NO
SIGNIFICANT WEATHER AND/OR OBSTRUCTIONS TO VISIBILITY.

* - THESE STATIONS ARE NOT NWS STATIONS...THUS NOT UNDER NWS
QUALITY CONTROL.  THEY ALSO DO NOT REPORT WEATHER SUCH
AS PRECIPITATION OR FOG.

IAZ001>003-012>014-020>022-031>034-043>046-031400-
   NORTHWEST IOWA

CITY           SKY/WX    TMP DP  RH WIND       PRES   REMARKS
CARROLL *      CLEAR     27  27 100 CALM      30.29F
CHEROKEE *     PTCLDY    27  27  99 CALM      30.28S
DENISON *        N/A     27  25  93 CALM      30.27S
LE MARS *      CLEAR     27  25  93 CALM      30.27F
ORANGE CITY *  CLEAR     28  27  93 CALM      30.25F
SHELDON *      CLEAR     28  28 100 SE6       30.24F WCI  22
SIOUX CITY     CLEAR     23  21  92 SE7       30.28F WCI  15
SPENCER        CLOUDY    31  28  89 S6        30.27F WCI  25
STORM LAKE *   CLEAR     30  27  86 S5        30.27S WCI  25
$$

IAZ055>058-069>071-079>083-090>094-031400-
   SOUTHWEST IOWA

CITY           SKY/WX    TMP DP  RH WIND       PRES   REMARKS
ATLANTIC *     CLEAR     23  23 100 CALM      30.31R
AUDUBON *      CLEAR     25  21  86 CALM      30.31R
CLARINDA *       N/A     23  23 100 CALM      30.32F
COUNCIL BLFS * PTCLDY    27  27 100 E5        30.28F WCI  21
CRESTON *        N/A     27  25  93 NE5       30.31S WCI  21
HARLAN  *      CLEAR     23  23 100 CALM      30.33R
LAMONI         CLEAR     25  24  96 CALM      30.31R
RED OAK *      CLOUDY    23  23 100 CALM      30.30F
SHENANDOAH *   PTCLDY    25  23  93 NE6       30.30F WCI  18
$$

IAZ047>049-059>061-072>074-084-031400-
   CENTRAL IOWA

CITY           SKY/WX    TMP DP  RH WIND       PRES   REMARKS
AMES           CLOUDY    34  32  92 N5        30.31F WCI  30
ANKENY *       CLOUDY    36  32  87 S3        30.33F
BOONE *        CLOUDY    34  32  93 CALM      30.29F
CHARITON *     FOG       27  27 100 CALM      30.32R VSB<1/4
DES MOINES     CLOUDY    37  27  67 CALM      30.33F
GRINNELL*      CLOUDY    32  31  94 CALM      30.32F
KNOXVILLE *    CLOUDY    34  32  93 CALM      30.32S
MARSHALLTOWN   CLOUDY    33  30  88 S5        30.30F WCI  29
NEWTON *       CLOUDY    34  30  86 CALM      30.31F
PELLA *        MOCLDY    34  31  89 CALM      30.34F
PERRY *          N/A     31  30  96 CALM      30.31F
$$

IAZ004>006-015-016-023>025-035-036-031400-
   NORTH CENTRAL IOWA

CITY           SKY/WX    TMP DP  RH WIND       PRES   REMARKS
ALGONA *       CLOUDY    30  27  86 NE3       30.29S
CLARION *      CLOUDY    32  32 100 S3        30.29F
ESTHERVILLE    CLOUDY    28  23  81 NE3       30.27F
FORT DODGE *   CLOUDY    34  27  75 SW3       30.30F
MASON CITY     CLOUDY    29  24  82 N7        30.32S WCI  22
FOREST CITY *  CLOUDY    30  23  74 CALM      30.30S
WEBSTER CITY * CLOUDY    32  32 100 CALM      30.28F
IOWA FALLS *   CLOUDY    33  30  90 SW6       30.32S WCI  27
$$

IAZ007>011-017>019-026>030-037>042-050>054-066-031400-
   NORTHEAST IOWA

CITY           SKY/WX    TMP DP  RH WIND       PRES   REMARKS
CEDAR RAPIDS   CLOUDY    31  28  89 CALM      30.33F
CHARLES CITY * CLOUDY    30  27  86 S6        30.30F WCI  24
CLINTON *      CLOUDY    32  27  81 NW8       30.36F WCI  25
DECORAH *      CLOUDY    28  25  86 CALM      30.30F
DUBUQUE        CLOUDY    30  23  75 N10       30.34F WCI  21
MONTICELLO *   CLOUDY    32  25  74 CALM      30.33F
OELWEIN *      CLOUDY    30  27  86 SE5       30.32F WCI  25
WATERLOO       CLOUDY    31  25  78 CALM      30.32F
$$

IAZ064-065-067-068-078-031400-
   EAST CENTRAL IOWA

CITY           SKY/WX    TMP DP  RH WIND       PRES   REMARKS
DAVENPORT      CLOUDY    32  25  75 NW13      30.37S WCI  22
IOWA CITY      CLOUDY    34  26  72 CALM      30.37F
MUSCATINE *    CLOUDY    34  27  75 N8        30.36F WCI  27
QUAD CITIES    CLOUDY    34  23  64 NW10      30.36S WCI  26
$$

IAZ062-063-075>077-085>089-095>099-031400-
   SOUTHEAST IOWA

CITY           SKY/WX    TMP DP  RH WIND       PRES   REMARKS
BURLINGTON     CLOUDY    34  29  82 NE5       30.35F WCI  30
FAIRFIELD *    CLOUDY    34  28  80 E3        30.33F
FORT MADISON * PTCLDY    34  28  80 CALM      30.35F
KEOKUK *       CLOUDY    32  30  93 CALM      30.34F
OSKALOOSA *    CLOUDY    33  31  91 E5        30.33F WCI  28
CENTERVILLE *    N/A     28  28 100 CALM      30.33S
OTTUMWA        CLOUDY    34  29  82 E6        30.32F WCI  29
WASHINGTON *   CLOUDY    32  30  93 CALM      30.36F
$$

ABBREVIATIONS USED IN REMARKS
   TC - TEMPERATURES IN CELSIUS
  WCI - WIND CHILL INDEX
   HX - HEAT INDEX
  VSB - VISIBILITY
$$





USA.gov is the U.S. government's official web portal to all federal, state and local government web resources and services.